DW3900 Weather Reports


time (UTC)temp
F
wind
direction
speed
knots
gust
knots
rain 1hr
in
rain 24hr
in
rain mn
in
humidity
%
barometer
mb
20260906121556 73 152 0.0 0.0 0.00 0.00 0.00 88 1010.4
20260906120110 72 152 0.0 0.0 0.00 0.00 0.00 89 1010.2
20260906114548 71 152 0.0 0.0 0.00 0.00 0.00 90 1009.9
20260906113051 72 152 0.0 0.0 0.00 0.00 0.00 90 1009.6
20260906111559 72 152 0.0 0.0 0.00 0.00 0.00 90 1009.4
20260906110044 71 151 0.0 0.0 0.00 0.00 0.00 89 1009.3
20260906104541 72 152 0.0 0.0 0.00 0.00 0.00 89 1009.1
20260906103043 72 152 0.0 0.0 0.00 0.00 0.00 88 1008.9
20260906101539 73 152 0.0 0.0 0.00 0.00 0.00 87 1008.8
20260906100036 73 152 0.0 0.0 0.00 0.00 0.00 85 1008.7
20260906094539 74 152 0.0 0.0 0.00 0.00 0.00 85 1008.7
20260906093039 75 150 0.0 0.0 0.00 0.00 0.00 83 1008.6
20260906091536 74 192 0.0 0.0 0.00 0.00 0.00 83 1008.5
20260906090034 74 192 0.0 0.0 0.00 0.00 0.00 84 1008.5
20260906084543 75 192 0.0 0.0 0.00 0.00 0.00 82 1008.5
20260906083035 75 192 0.0 2.6 0.00 0.00 0.00 81 1008.4
20260906081530 75 192 0.0 0.9 0.00 0.00 0.00 81 1008.3
20260906080031 75 192 0.0 1.7 0.00 0.00 0.00 79 1008.4
20260906074525 76 183 0.0 3.5 0.00 0.00 0.00 79 1008.5
20260906073028 76 181 1.7 4.3 0.00 0.00 0.00 78 1008.8
20260906071523 76 166 0.9 6.1 0.00 0.00 0.00 77 1008.7
20260906070025 76 178 2.6 4.3 0.00 0.00 0.00 78 1008.5
20260906064521 76 138 0.0 2.6 0.00 0.00 0.00 76 1008.6
20260906063020 76 144 0.0 0.0 0.00 0.00 0.00 76 1008.6
20260906061518 77 144 0.0 2.6 0.00 0.00 0.00 75 1008.7
20260906060019 76 145 1.7 4.3 0.00 0.00 0.00 76 1008.9
20260906054517 76 132 0.9 2.6 0.00 0.00 0.00 76 1008.9
20260906053014 76 132 0.0 0.0 0.00 0.00 0.00 76 1009.0
20260906051512 77 132 0.0 1.7 0.00 0.00 0.00 77 1009.2
20260906050009 77 132 0.0 2.6 0.00 0.00 0.00 75 1009.2
20260906044513 77 126 1.7 2.6 0.00 0.00 0.00 75 1009.2
20260906043007 78 74 0.0 1.7 0.00 0.00 0.00 74 1009.4
20260906041507 79 69 0.0 2.6 0.00 0.00 0.00 72 1009.2
20260906040009 80 63 2.6 10.4 0.00 0.00 0.00 71 1009.4
20260906034511 81 64 4.3 10.4 0.00 0.00 0.00 72 1009.7
20260906033021 82 45 2.6 6.1 0.00 0.00 0.00 74 1009.6
20260906031504 81 329 0.0 2.6 0.00 0.00 0.00 76 1009.2
20260906030005 81 329 0.0 0.0 0.00 0.00 0.00 74 1008.9
20260906024503 81 328 0.0 0.0 0.00 0.00 0.00 75 1008.3
20260906023002 81 328 0.0 0.0 0.00 0.00 0.00 75 1008.3
20260906021503 82 329 0.0 0.0 0.00 0.00 0.00 72 1008.1
20260906020002 83 329 0.0 0.0 0.00 0.00 0.00 70 1008.0
20260906014505 83 329 0.9 2.6 0.00 0.00 0.00 70 1007.8
20260906013101 83 303 0.0 1.7 0.00 0.00 0.00 70 1007.6
20260906011501 83 303 0.0 1.7 0.00 0.00 0.00 69 1007.3
20260906010118 84 303 0.0 1.7 0.00 0.00 0.00 69 1007.5
20260906004605 85 303 0.0 1.7 0.00 0.00 0.00 67 1007.3
20260906003112 86 303 0.0 0.0 0.00 0.00 0.00 64 1007.6
20260906001558 88 303 0.0 0.0 0.00 0.00 0.00 62 1007.5
20260906000104 89 303 0.0 0.0 0.00 0.00 0.00 58 1007.7
20260905234606 90 303 0.0 0.0 0.00 0.00 0.00 54 1007.7
20260905233059 92 303 0.0 1.7 0.00 0.00 0.00 53 1007.6
20260905231557 94 302 0.9 2.6 0.00 0.00 0.00 47 1007.6
20260905230056 95 335 0.0 3.5 0.00 0.00 0.00 47 1007.6
20260905224555 96 329 0.9 4.3 0.00 0.00 0.00 45 1007.4
20260905223054 96 327 1.7 8.7 0.00 0.00 0.00 45 1007.4
20260905221553 97 330 0.9 7.8 0.00 0.00 0.00 44 1007.4
20260905220053 97 360 1.7 7.0 0.00 0.00 0.00 44 1007.4
20260905214552 98 300 0.9 5.2 0.00 0.00 0.00 44 1007.3
20260905213051 98 295 1.7 7.8 0.00 0.00 0.00 43 1007.4
20260905211549 98 286 1.7 5.2 0.00 0.00 0.00 43 1007.6
20260905210048 98 316 2.6 7.8 0.00 0.00 0.00 43 1007.7
20260905204557 99 360 1.7 3.5 0.00 0.00 0.00 43 1007.8
20260905203053 96 19 0.0 1.7 0.00 0.00 0.00 46 1008.2
20260905201545 98 318 2.6 7.8 0.00 0.00 0.00 42 1008.5
20260905200140 98 298 0.0 3.5 0.00 0.00 0.00 47 1008.5
20260905194545 97 325 0.0 6.1 0.00 0.00 0.00 45 1008.6
20260905193036 98 331 0.0 4.3 0.00 0.00 0.00 48 1008.9
20260905191534 98 360 1.7 7.8 0.00 0.00 0.00 48 1009.1
20260905190035 99 311 1.7 7.8 0.00 0.00 0.00 44 1009.3
20260905184533 98 235 0.9 6.1 0.00 0.00 0.00 43 1009.5
20260905183026 97 294 0.0 7.8 0.00 0.00 0.00 43 1009.7
20260905181533 97 289 0.9 4.3 0.00 0.00 0.00 45 1009.8
20260905180023 97 264 1.7 4.3 0.00 0.00 0.00 50 1010.0
20260905174521 98 38 0.9 5.2 0.00 0.00 0.00 49 1010.2
20260905173020 97 285 1.7 6.1 0.00 0.00 0.00 48 1010.5
20260905171524 95 223 1.7 7.8 0.00 0.00 0.00 55 1010.7
20260905170017 96 295 0.9 7.0 0.00 0.00 0.00 48 1010.7
20260905164515 95 329 0.0 3.5 0.00 0.00 0.00 48 1010.7
20260905163013 96 14 0.9 7.0 0.00 0.00 0.00 49 1011.0
20260905161511 95 30 1.7 5.2 0.00 0.00 0.00 51 1011.0
20260905160032 94 298 0.9 4.3 0.00 0.00 0.00 54 1011.1
20260905154508 94 13 0.9 4.3 0.00 0.00 0.00 54 1011.2
20260905153107 93 296 1.7 7.0 0.00 0.00 0.00 57 1011.3
20260905151505 92 282 0.0 0.0 0.00 0.00 0.00 56 1011.3
20260905150005 92 277 0.0 0.0 0.00 0.00 0.00 59 1011.4
20260905144501 92 302 0.0 0.0 0.00 0.00 0.00 59 1011.4
20260905143059 91 325 0.0 0.0 0.00 0.00 0.00 62 1011.4
20260905141555 89 329 0.0 0.0 0.00 0.00 0.00 65 1011.5
20260905140051 88 288 0.0 0.0 0.00 0.00 0.00 66 1011.5
20260905134552 86 313 0.0 0.0 0.00 0.00 0.00 70 1011.6
20260905133042 85 315 0.0 0.0 0.00 0.00 0.00 73 1011.7
20260905131548 83 302 0.0 0.0 0.00 0.00 0.00 77 1011.7
20260905130035 81 227 0.0 0.0 0.00 0.00 0.00 79 1011.7
20260905124536 79 227 0.0 0.0 0.00 0.00 0.00 82 1011.7
20260905123028 78 226 0.0 0.0 0.00 0.00 0.00 86 1011.6